Погода Гродно

Погода Гродно : погода сейчас, прогноз погоды и архив. Всё, что Вы хотите узнать о погоде Гродно!

Поиск расширенной информации на нашем сайте:

Другие новости

Новости СМИ2

Главная страница сайта

Новости сайта

02.10.2013

Напоминаем, что на нашем новом сайте вы можете получить высокодетализированные прогнозы погоды по пунктам России, СНГ и мира (включающие важные для авиации метеовеличины, такие как направление и скорость ветра, видимость, явления погоды, количество и форма облачности, нижняя и верхняя граница облачности), а также ознакомиться с разнообразными материалами по авиационной метеорологии и подборкой полезных ссылок на эту тему.

Сайт Метеоцентр.Азия посвящён разработке технологий оптимизации авиаметеорологического обслуживания, включая проектирование и перспективное создание нескольких автоматизированных авиаметеорологических систем:
- система выпуска высокодетальных прогностических карт явлений погоды для нижнего воздушного пространства по России и ближнему зарубежью;
- система верификации прогнозов TAF (выпускаемых синоптиками официальных АМСГ РФ и ближнего зарубежья) и AUTOTAF (выпускаемых сайтом Метеоцентр.Азия) - выявление ошибок, онлайн-сопоставление с фактической погодой METAR, автоматическое внесение коррективов в прогнозы при резком отклонении фактической погоды от прогноза, подсчёт оправдываемости прогнозов по элементам и в целом;
- система обработки, анализа и отображения авиаметеорологической информации для применения провайдерами метеорологической информации.

Рекомендуем: Грунтноцементные сваи усиление грунтов.

Погода Гродно - сегодня

Время (UTC), дата Ветер
(°,м/с) 
Видим.   Явления Облачность Т
(°С)
Тd
(°С)
f(%) Тe
(°С)
Pmin
(гПа)
dP
(гПа)
Po
(мм)
O2
(г/м3)
Тmin Tmax R s Состояние
почвы
21 19.02.17 210 (ЮЗ) 10 км    9/9 600 м 
[Sc]
+1.6 -0.6 85 -1  1015.9  -0.5  748  300           
00 20.02.17 220 (ЮЗ) 10 км    8/8 800 м 
[Sc]
+1.7 -0.2 87 -1  1014.8  -1.1  747  299           
03 20.02.17 230 (ЮЗ) 10 км    6/6 1000 м 
[Sc]
+1.3 -0.7 86 -1  1012.8  -2  746  299         
06 20.02.17 230 (ЮЗ) 7000 м  дымка  10/10 330 м 
[St]
+1.5 -0.5 87 -1  1012.4  -0.4  745  299  +1.2      равномерный
мокрый или
старый снег
100% 
09 20.02.17 220 (ЮЗ) 4200 м  дымка{ливн. осадки}  10/10 210 м 
[St]
+1.6 +0.2 90 -1  1011.2  -1.2  745  298           
12 20.02.17 220 (ЮЗ) 7-10{10}  5000 м  дымка  10/10 240 м 
[St]
+2.2 +1.2 93 -1  1008.9  -2.2  743  297           
15 20.02.17 230 (ЮЗ) 7-10{11}  4100 м  в посл. час ливневой дождь  10/10 240 м 
[St]
+2.2 +1.4 94 -1  1006.6  -2.3  741  296      0.0     
18 20.02.17 220 (ЮЗ) 7-10{11}  4300 м  в посл. час ливневой дождь  10/10 300 м 
[St]
+2.6 +1.8 94 -1  1001.7  -4.7  738  294    +2.6  0.0   
21 20.02.17 230 (ЮЗ) 8-12{14}  6000 м  слаб. дождь  10/10 270 м 
[Frnb|Ns]
+2.5 +1.7 94 -1  998.7  -2.9  735  293           
00 21.02.17 230 (ЮЗ) 8-12{13}  6000 м  слаб. дождь  10/10 270 м 
[Frnb|Ns]
+2.8 +2.3 97 -1  995.1  -3.5  733  292           
03 21.02.17 230 (ЮЗ) 8-11{13}  8000 м  дымка{дождь}  10/10 270 м 
[St]
+4.2 +3.5 95 +1  992.4  -2.7  731  289       
06 21.02.17 270 (З) 9000 м  слаб. ливневой дождь  9/8 300 м средняя 
[Frnb|As trans]
+5.3 +3.9 91 +2  991.5  -0.8  730  288         
09 21.02.17 270 (З) 9-13{14}  10 км  в посл. час ливневой дождь  9/8 360 м средняя 
[St|Ac trans]
+5.6 +2.9 83 +2  992.6  1.1  731  288           
12 21.02.17 270 (З) 9-12{14}  10 км  в посл. час ливневой дождь  9/8 400 м средняя 
[St|Ac trans]
+5.4 +2.7 83 +2  993.7  1.1  732  289           
15 21.02.17 280 (З) 9-13{14}  11000 м  {ливн. осадки}  9/8 540 м средняя 
[Sc|Ac trans]
+4.8 +1.2 77 +1  994.3  0.6  732  290      0.3     
18 21.02.17 270 (З) 11000 м  {ливн. осадки}  9/6 600 м средняя, верхняя 
[St|As op|Cs]
+3.7 -0.3 75 995.2  0.8  733  291      0.3   
21 21.02.17 270 (З) 8-11{13}  8000 м  слаб. ливневой дождь  9/8 330 м кучево-дожд., средняя 
[Cb calv|Ac trans]
+2.4 +0.3 86 -1  996.2  0.8  734  293           
00 22.02.17 290 (З) 8-11{11}  10 км  {ливн. осадки}  9/8 360 м средняя 
[St|Ac trans]
+1.4 -0.8 85 -3  998.4  2.2  735  295           
03 22.02.17 310 (СЗ) 8-11{15}  9000 м  слаб. ливневой снег  9/8 600 м кучево-дожд., средняя 
[Cb calv|Ac trans]
+0.4 -1.6 86 -4  1002.8  4.1  738  297      <0.5   
06 22.02.17 290 (З) 10 км  {ливн. осадки}  9/8 600 м средняя 
[St|As op]
-0.2 -2.6 84 -3    739  298         
09 22.02.17 240 (ЮЗ) 12000 м    9/8 360 м средняя 
[St|Ac trans]
+0.2 -3.1 78 -2  1002.7  -1.2  738  298           
12 22.02.17 190 (Ю) 12000 м    9/8 330 м средняя 
[St|Ac trans]
+2.3 -0.7 81 997.4  -5  734  293           
15 22.02.17 180 (Ю) 7{11}  4200 м  слаб. дождь со снегом{ливн. осадки}  10/10 210 м 
[Frnb|Ns]
+0.9 +0.4 96 -3  992.8  -4.5  731  293         
18 22.02.17 190 (Ю) 8000 м  в посл. час дождь{ливн. осадки, снег}  10/10 300 м верхняя 
[Frnb|As trans|Ci sp]
+3.3 +2.8 97 +2  990.5  -2.2  729  290      <0.5   
21 22.02.17 240 (ЮЗ) 8000 м  дымка  9/0 средняя 
[Ac trans]
+3.6 +3.1 97 +3  990.5  729  290           
Время (UTC), дата Ветер
(°,м/с) 
Видим.   Явления Облачность Т
(°С)
Тd
(°С)
f(%) Тe
(°С)
Pmin
(гПа)
dP
(гПа)
Po
(мм)
O2
(г/м3)
Тmin Tmax R s Состояние
почвы

Для получения пояснительной информации подведите курсор к названию столбца.

ПОГОДА Гродно - архив

Всё, что Вы хотите узнать о погоде Гродно - удобно и подробно!

Выберите нужную дату (начиная с 1 января 2015* года) и нажмите кнопку "Найти".
Будут отображены архивные сводки погоды по пункту Гродно, начиная с указанной даты.


Отображать данные в формате CSV (для использования в таблицах Excel)


Внимание! Наш архив погоды предназначен исключительно для личного некоммерческого использования в познавательных целях. Если Вам необходимы официальные справки о состоянии погоды (для производственных, юридических, коммерческих и т.п. целей), обращайтесь в органы Росгидромета.

*Примечание: данная дата относится к архиву по метеостанциям СССР (Россия, СНГ, Балтия).
Архив по метеостанциям Зарубежной Европы и Азии (кроме Китая) хранится 10 дней, по другим регионам земного шара (Китай, Африка, Америка, Австралия, Океания) - 1 день.

Гродно - район местоположения метеостанции


Название, широта, долгота, высота метеостанции:
Гродно 53.6°ш. 24.1°д. 134 м над ур. моря [Беларусь]

Дополнительная информация

В oтличие oт бoльшинства пoгoдных сайтoв мы публикуем пoдрoбную метеoинфoрмацию в детальнoм прoфессиoнальнoм фoрмате.

Характеристики температуры и влажнoсти вoздуха измеряются на высoте 2 м в тени вдали oт зданий и деревьев.
Скoрoсть ветра измеряется на высoте 10 м (на урoвне рoста челoвека скoрoсть ветра ниже в 1.5-2 раза). Если метеoстанция нахoдится в гoрoде или в лесу, тo скoрoсть ветра занижена на 2-4 м/с пo сравнению с oткрытым местoм. Скoрoсть ветра над акватoриями крупных рек и oзёр, а также на вершинах хoлмoв на 2-5 м/с выше, чем в oбычных услoвиях.
Атмoсфернoе давление в разных тoчках местнoсти мoжет значительнo oтличаться oт давления на метеoстанции, в зависимoсти oт услoвий рельефа (при пoдъёме на 10 м давление пoнижается примернo на 1 мм рт.ст.).